Weather Roundup
Issued by NWS

Home | Current Version | Previous Version | Text Only | Print | Product List | Glossary On
Versions: 1 2 3 4 5 6 7 8 9 10 11 12 13 14 15 16 17 18 19 20 21 22 23 24 25 26 27 28 29 30 31 32 33 34 35 36 37 38 39 40 41 42 43 44 45 46 47 48 49 50
000
NZUS93 KARX 291710
HRRWXR

CURRENT HOURLY OBSERVATIONS ACROSS
MUCH OF THE UPPER MISSISSIPPI VALLEY
NATIONAL WEATHER SERVICE LA CROSSE WI
1200 PM CDT THU JUN 29 2017


...SOUTHEAST MINNESOTA...


CITY           SKY/WX    TMP DP  RH WIND       PRES   REMARKS
ROCHESTER      CLOUDY    74  64  71 NW7       29.79R
ROCHESTER/MAYO PTSUNNY   72  61  68 W12       29.78R
WINONA         MOSUNNY   73  63  68 NW9       29.75S
AUSTIN         PTSUNNY   73  63  68 CALM      29.79R
ALBERT LEA     MOSUNNY   73  63  68 SW3       29.79R
DODGE CENTER   MOSUNNY   72  63  73 NW10      29.79R
PRESTON        CLOUDY    73  61  68 W5        29.80R
OWATONNA       MOSUNNY   73  63  68 NW13      29.78R
FARIBAULT      CLOUDY    70  61  73 W10       29.79R
$$

...ELSEWHERE IN MINNESOTA...


CITY           SKY/WX    TMP DP  RH WIND       PRES   REMARKS
MINNEAPOLIS    CLOUDY    70  59  68 NW8       29.76F
INTNL FALLS    CLOUDY    63  57  81 N8        29.75S
DULUTH         LGT RAIN  62  60  93 NW9       29.72R FOG
RED WING       CLOUDY    72  57  60 W8G16     29.75R
REDWOOD FALLS  CLOUDY    66  59  78 W12       29.81S
MANKATO        CLOUDY    68  61  78 NW13      29.80R
WORTHINGTON    CLOUDY    73  62  68 N8        29.81S
FAIRMONT       CLOUDY    72  64  76 N9        29.80R
$$

...SOUTHWEST WISCONSIN...


CITY           SKY/WX    TMP DP  RH WIND       PRES   REMARKS
LA CROSSE      PTSUNNY   80  64  58 W6        29.75R
PRAIRIE DU CHI CLOUDY    75  64  67 SW9       29.78S
BOSCOBEL       CLOUDY    77  65  66 SW9       29.77F
LONE ROCK      NOT AVBL
PLATTEVILLE    CLOUDY    74  69  85 W8        29.81F
FORT MC COY    MOSUNNY   73  62  69 W5        29.76S
CAMP DOUGLAS   PTSUNNY   73  64  73 W12G18    29.75R
MAUSTON-NEW LI MOSUNNY   74  63  69 W9G17     29.75S
VIROQUA        PTSUNNY   74  65  75 SW12G17   29.79S
WIS DELLS      CLOUDY    75  62  63 W13G18    29.76S
$$

...ELSEWHERE IN WISCONSIN...


CITY           SKY/WX    TMP DP  RH WIND       PRES   REMARKS
MILWAUKEE      PTSUNNY   78  67  68 W16       29.76R
MADISON        CLOUDY    76  66  71 SW10      29.76R
GREEN BAY      PTSUNNY   75  64  68 SW17G28   29.69R
EAU CLAIRE     CLOUDY    68  60  75 W13       29.73S
BLACK RVR FLS  CLOUDY    75  61  60 W8        29.74S
MEDFORD        CLOUDY    64  59  85 W15       29.72S
WAUSAU         CLOUDY    66  60  81 W14       29.71R
WIS RAPIDS     CLOUDY    72  61  68 NW18G25   29.75R
MARSHFIELD     CLOUDY    67  60  78 W10       29.73R
RICE LAKE      CLOUDY    65  59  78 W9        29.75S
$$

...NORTHEAST IOWA...


CITY           SKY/WX    TMP DP  RH WIND       PRES   REMARKS
WATERLOO       CLOUDY    72  67  84 SE3       29.79S
DUBUQUE        CLOUDY    74  66  76 W16G25    29.81F
DECORAH        CLOUDY    73  63  68 VRB5G12   29.78S
MASON CITY     CLOUDY    75  61  61 VRB3      29.81R
CHARLES CITY   PTSUNNY   73  66  78 SW7       29.80R
OELWEIN        CLOUDY    72  70  94 S9        29.81F
$$

...ELSEWHERE IN IOWA...


CITY           SKY/WX    TMP DP  RH WIND       PRES   REMARKS
DES MOINES     CLOUDY    77  67  71 SW12      29.80S
IOWA CITY      CLOUDY    75  66  73 SW12G25   29.85S
FORT DODGE     CLOUDY    73  66  78 CALM      29.79F
MARSHALLTOWN   CLOUDY    76  69  79 SW13      29.80S
CEDAR RAPIDS   CLOUDY    73  68  84 SW15      29.82S
$$

...NORTHERN ILLINOIS...


CITY           SKY/WX    TMP DP  RH WIND       PRES   REMARKS
CHICAGO-OHARE  PTSUNNY   79  66  64 W16       29.82R
CHICAGO-MIDWAY PTSUNNY   80  66  62 SW15G28   29.83R
MOLINE         CLOUDY    76  64  66 SW12      29.85R
ROCKFORD       CLOUDY    79  68  69 W12G20    29.83R
PEORIA         CLOUDY    77  65  66 SW10      29.89R
$$

NOTE: "FAIR" INDICATES FEW OR NO CLOUDS BELOW 12,000 FEET WITH NO
SIGNIFICANT WEATHER AND/OR OBSTRUCTIONS TO VISIBILITY. WIND
SPEEDS ARE IN MILES-PER-HOUR.




USA.gov is the U.S. government's official web portal to all federal, state and local government web resources and services.